User: anonymous
Location: The Jewett Observatory
(46.7288°N, 117.1525°W)
Time: 20:49:42
(UTC-07:00)
Language:

Cosmos 1633 - Orbit

View from above orbital plane
View from above orbital plane
View from above satellite
View from above satellite

Ground track
Ground track

The orbit data is extracted from the following two-line orbital elements,

1 15592U 85020A   14106.17018006  .00007850  00000-0  38356-3 0  4232
2 15592 082.5446 032.3284 0015880 289.3766 203.4921 15.17988823587876
Epoch (UTC): 16 April 2014 04:05:03
Eccentricity: 0.0015880
inclination: 82.5446°
perigee height: 501 km
apogee height: 523 km
right ascension of ascending node: 32.3284°
argument of perigee: 289.3766°
revolutions per day: 15.17988823
mean anomaly at epoch: 203.4921°
orbit number at epoch: 58787

The dashed part of the orbit path shows where the satellite is in the earth's shadow,  

DLR